Weather History for Eindhoven, Netherlands

Change the Weather History Date:

Monday, May 5, 2014

  Actual Average Record
Temperature  
Mean Temperature 54 °F -  
Max Temperature 69 °F 65 °F 78 °F (2006)
Min Temperature 38 °F 47 °F 35 °F (2011)
Degree Days  
Heating Degree Days 12    
Growing Degree Days 4 (Base 50)    
Moisture  
Dew Point 39 °F    
Average Humidity 51    
Maximum Humidity 93    
Minimum Humidity 20    
Precipitation  
Precipitation 0.00 in - - ()
Sea Level Pressure  
Sea Level Pressure 30.01 in    
Wind  
Wind Speed 4 mph ()    
Max Wind Speed 9 mph    
Max Gust Speed 16 mph    
Visibility 8.6 miles    
Events      
Averages and records for this station are not official NWS values.
T = Trace of Precipitation, MM = Missing Value Source: Averaged Metar Reports

Daily Weather History Graph

Daily Weather History Graph

Search for Another Location

Airport:

Trip Planner

Search our weather history database for the weather conditions in past years. The results will help you decide how hot, cold, wet, or windy it might be!

Date:

Astronomy

May. 05, 2014 Rise Set
Actual Time 6:03 AM CEST 9:07 PM CEST
Civil Twilight 5:24 AM CEST 9:47 PM CEST
Nautical Twilight 4:33 AM CEST 10:38 PM CEST
Astronomical Twilight 3:28 AM CEST 11:45 PM CEST
Moon 11:09 AM CEST (5/5) 1:41 AM CEST (5/5)
Length of Visible Light 16h 22m
Length of Day
15h 04m
Waxing Crescent, 34% of the Moon is Illuminated
May 5
Waxing Crescent
May 7
First Quarter
May 14
Full
May 21
Last Quarter
May 28
New

Hourly Weather History & Observations

Time (CEST) Temp. Windchill Dew Point Humidity Pressure Visibility Wind Dir Wind Speed Gust Speed Precip Events Conditions
12:00 AM 50 °F - 38 °F 52% 30.15 in 19 mi East 4.5 mph - -   Overcast
12:25 AM 50.0 °F - 37.4 °F 62% 30.12 in 6.2 mi East 4.6 mph - N/A   Overcast
12:55 AM 48.2 °F - 37.4 °F 66% 30.12 in 6.2 mi East 4.6 mph - N/A   Partly Cloudy
1:00 AM 48 °F - 37 °F 55% 30.15 in 25 mi East 4.5 mph - -   Mostly Cloudy
1:25 AM 48.2 °F - 37.4 °F 66% 30.12 in 6.2 mi East 4.6 mph - N/A   Partly Cloudy
1:55 AM 48.2 °F - 37.4 °F 66% 30.12 in 6.2 mi ESE 3.5 mph - N/A   Mostly Cloudy
2:00 AM 48 °F - 37 °F 55% 30.14 in 22 mi ESE 4.5 mph - -   Partly Cloudy
2:25 AM 48.2 °F - 37.4 °F 66% 30.12 in 6.2 mi ESE 4.6 mph - N/A   Partly Cloudy
2:55 AM 46.4 °F 45.2 °F 37.4 °F 71% 30.12 in 6.2 mi ESE 3.5 mph - N/A   Unknown
3:00 AM 46 °F - 37 °F 61% 30.12 in 22 mi ESE 4.5 mph - -  
3:25 AM 44.6 °F 43.1 °F 37.4 °F 76% 30.09 in 6.2 mi ESE 3.5 mph - N/A   Unknown
3:55 AM 42.8 °F - 37.4 °F 81% 30.09 in 6.2 mi ESE 2.3 mph - N/A   Unknown
4:00 AM 43 °F - 37 °F 71% 30.12 in 16 mi ESE 2.2 mph - -  
4:25 AM 42.8 °F - 35.6 °F 76% 30.09 in 6.2 mi East 2.3 mph - N/A   Unknown
4:55 AM 41.0 °F - 37.4 °F 87% 30.09 in 6.2 mi East 2.3 mph - N/A   Unknown
5:00 AM 41 °F - 36 °F 77% 30.12 in 12 mi East 2.2 mph - -  
5:25 AM 42.8 °F 40.1 °F 35.6 °F 76% 30.09 in 6.2 mi East 4.6 mph - N/A   Unknown
5:55 AM 39.2 °F - 35.6 °F 87% 30.09 in 6.2 mi ESE 1.2 mph - N/A   Unknown
6:00 AM 39 °F - 36 °F 84% 30.11 in 10 mi ESE 2.2 mph - -  
6:25 AM 37.4 °F - 35.6 °F 93% 30.09 in 6.2 mi SE 2.3 mph - N/A   Unknown
6:55 AM 42.8 °F 41.1 °F 37.4 °F 81% 30.09 in 6.2 mi ESE 3.5 mph - N/A   Unknown
7:00 AM 44 °F - 37 °F 67% 30.11 in 12 mi ESE 2.2 mph - -   Scattered Clouds
7:25 AM 46.4 °F 45.2 °F 37.4 °F 71% 30.09 in 6.2 mi ESE 3.5 mph - N/A   Scattered Clouds
7:55 AM 48.2 °F - 37.4 °F 66% 30.09 in 6.2 mi ESE 4.6 mph - N/A   Unknown
8:00 AM 48 °F - 37 °F 57% 30.09 in 16 mi ESE 4.5 mph - -   Partly Cloudy
8:25 AM 50.0 °F - 37.4 °F 62% 30.06 in 6.2 mi ESE 5.8 mph - N/A   Partly Cloudy
8:55 AM 51.8 °F - 37.4 °F 58% 30.06 in 6.2 mi ESE 4.6 mph - N/A   Mostly Cloudy
9:00 AM 51 °F - 39 °F 53% 30.09 in 12 mi ESE 4.5 mph - -   Scattered Clouds
9:25 AM 51.8 °F - 37.4 °F 58% 30.06 in 6.2 mi ESE 5.8 mph - N/A   Scattered Clouds
9:55 AM 53.6 °F - 39.2 °F 58% 30.06 in 6.2 mi ESE 6.9 mph - N/A   Scattered Clouds
10:00 AM 54 °F - 38 °F 44% 30.07 in 16 mi SE 6.7 mph - -   Scattered Clouds
10:25 AM 55.4 °F - 39.2 °F 54% 30.04 in 6.2 mi ESE 5.8 mph - N/A   Overcast
10:55 AM 57.2 °F - 39.2 °F 51% 30.04 in 6.2 mi South 3.5 mph - N/A   Overcast
11:00 AM 58 °F - 40 °F 39% 30.06 in 15 mi 2.2 mph - -   Mostly Cloudy
11:25 AM 59.0 °F - 37.4 °F 45% 30.04 in 6.2 mi SSE 4.6 mph - N/A   Partly Cloudy
11:55 AM 60.8 °F - 39.2 °F 45% 30.04 in 6.2 mi ESE 2.3 mph - N/A   Mostly Cloudy
12:00 PM 60 °F - 39 °F 33% 30.04 in 16 mi 2.2 mph - -   Partly Cloudy
12:25 PM 60.8 °F - 39.2 °F 45% 30.04 in 6.2 mi East 4.6 mph - N/A   Overcast
12:55 PM 62.6 °F - 35.6 °F 37% 30.01 in 6.2 mi ESE 3.5 mph - N/A   Mostly Cloudy
1:00 PM 62 °F - 36 °F 26% 30.02 in 17 mi SE 6.7 mph - -   Mostly Cloudy
1:25 PM 64.4 °F - 35.6 °F 34% 30.01 in 6.2 mi South 5.8 mph - N/A   Scattered Clouds
1:55 PM 64.4 °F - 33.8 °F 32% 30.01 in 6.2 mi South 8.1 mph - N/A   Mostly Cloudy
2:00 PM 65 °F - 37 °F 24% 30.01 in 15 mi SSE 4.5 mph - -   Partly Cloudy
2:25 PM 64.4 °F - 35.6 °F 34% 29.98 in 6.2 mi ESE 5.8 mph - N/A   Partly Cloudy
2:55 PM 66.2 °F - 39.2 °F 37% 29.98 in 6.2 mi South 5.8 mph - N/A   Partly Cloudy
3:00 PM 67 °F - 38 °F 23% 29.98 in 11 mi South 4.5 mph - -   Scattered Clouds
3:25 PM 66.2 °F - 39.2 °F 37% 29.95 in 6.2 mi SSE 3.5 mph - N/A   Partly Cloudy
3:55 PM 68.0 °F - 39.2 °F 35% 29.95 in 6.2 mi SE 3.5 mph 16.1 mph N/A   Partly Cloudy
4:00 PM 68 °F - 40 °F 24% 29.96 in 12 mi SE 6.7 mph - -   Scattered Clouds
4:25 PM 68.0 °F - 41.0 °F 37% 29.92 in 6.2 mi SE 9.2 mph - N/A   Partly Cloudy
4:55 PM 68.0 °F - 39.2 °F 35% 29.92 in 6.2 mi SE 5.8 mph - N/A   Partly Cloudy
5:00 PM 69 °F - 40 °F 24% 29.93 in 12 mi East 4.5 mph - -   Scattered Clouds
5:25 PM 69.8 °F - 39.2 °F 33% 29.92 in 6.2 mi ENE 6.9 mph - N/A   Unknown
5:55 PM 68.0 °F - 39.2 °F 35% 29.89 in 6.2 mi East 4.6 mph - N/A   Unknown
6:00 PM 69 °F - 37 °F 20% 29.91 in 14 mi SSE 6.7 mph - -   Scattered Clouds
6:25 PM 69.8 °F - 37.4 °F 31% 29.89 in 6.2 mi South 4.6 mph - N/A   Partly Cloudy
6:55 PM 68.0 °F - 37.4 °F 33% 29.89 in 6.2 mi SSW 6.9 mph - N/A   Scattered Clouds
7:00 PM 70 °F - 38 °F 20% 29.90 in 19 mi South 4.5 mph - -   Partly Cloudy
7:25 PM 68.0 °F - 37.4 °F 33% 29.89 in 6.2 mi South 5.8 mph - N/A   Partly Cloudy
7:55 PM 66.2 °F - 41.0 °F 40% 29.89 in 6.2 mi South 3.5 mph - N/A   Partly Cloudy
8:00 PM 66 °F - 40 °F 27% 29.89 in 19 mi SSE 2.2 mph - -   Partly Cloudy
8:25 PM 64.4 °F - 41.0 °F 42% 29.89 in 6.2 mi ESE 4.6 mph - N/A   Partly Cloudy
8:55 PM 64.4 °F - 41.0 °F 42% 29.86 in 6.2 mi SE 5.8 mph - N/A   Mostly Cloudy
9:00 PM 63 °F - 42 °F 34% 29.88 in 12 mi SE 6.7 mph - -   Partly Cloudy
9:25 PM 62.6 °F - 42.8 °F 48% 29.86 in 6.2 mi ESE 3.5 mph - N/A   Partly Cloudy
9:55 PM 60.8 °F - 42.8 °F 52% 29.86 in 6.2 mi ESE 4.6 mph - N/A   Unknown
10:00 PM 60 °F - 43 °F 43% 29.87 in 10 mi ESE 4.5 mph - -  
10:25 PM 60.8 °F - 44.6 °F 55% 29.86 in 6.2 mi ESE 4.6 mph - N/A   Overcast
10:55 PM 59.0 °F - 44.6 °F 59% 29.83 in 6.2 mi ESE 4.6 mph - N/A   Partly Cloudy
11:00 PM 59 °F - 44 °F 47% 29.86 in 9 mi ESE 4.5 mph - -   Partly Cloudy
11:25 PM 59.0 °F - 44.6 °F 59% 29.83 in 6.2 mi SE 4.6 mph - N/A   Partly Cloudy
11:55 PM 57.2 °F - 44.6 °F 63% 29.83 in 6.2 mi ESE 3.5 mph - N/A   Mostly Cloudy